Date,TemperatureHighF,TemperatureAvgF,TemperatureLowF,DewpointHighF,DewpointAvgF,DewpointLowF,HumidityHigh,HumidityAvg,HumidityLow,PressureMaxIn,PressureMinIn,WindSpeedMaxMPH,WindSpeedAvgMPH,GustSpeedMaxMPH,PrecipitationSumIn
2013-1-1,17,5,-17,14,-1,-22,88,75,58,30.17,29.92,8,2,8,0.00
2013-1-2,19,17,15,17,14,11,95,88,79,29.97,29.85,11,4,11,0.00
2013-1-3,21,16,9,19,10,2,94,77,52,30.14,29.96,9,4,10,0.00
2013-1-4,36,16,8,16,11,6,94,81,43,30.03,29.89,7,2,7,0.01
2013-1-5,32,16,5,18,10,2,93,79,50,30.00,29.75,9,2,9,0.01
2013-1-6,28,18,8,17,10,4,90,73,40,30.11,29.89,12,3,12,0.00
2013-1-7,44,30,15,25,21,12,90,72,43,29.90,29.75,13,4,13,0.00
2013-1-8,40,28,9,29,22,7,95,80,61,29.88,29.65,13,4,14,0.00
2013-1-9,37,26,20,27,20,16,91,79,48,30.24,29.77,11,3,11,0.01
2013-1-10,46,35,23,34,24,16,99,68,32,30.21,29.65,17,5,17,0.32
2013-1-11,40,37,34,40,37,34,99,99,99,29.66,29.26,11,4,11,0.06
2013-1-12,40,17,3,40,9,-2,99,73,52,29.98,29.26,14,1,14,0.00
2013-1-13,9,4,0,0,-2,-4,82,75,65,30.09,29.93,0,0,0,0.00
2013-1-14,17,7,-3,4,1,-7,87,75,44,30.29,30.11,0,0,0,0.00
2013-1-15,32,18,2,17,9,0,91,70,37,30.17,29.69,14,3,15,0.00
2013-1-16,36,25,10,31,15,-3,97,68,36,30.16,29.52,14,5,14,0.01
2013-1-17,20,11,3,6,0,-6,85,61,46,30.28,30.14,10,3,11,0.00
2013-1-18,45,26,12,29,21,6,98,80,52,30.19,29.62,11,2,11,0.05
2013-1-19,38,20,1,30,14,-7,99,77,52,30.09,29.58,26,8,27,1.85
2013-1-20,8,0,-7,-5,-9,-15,80,66,43,30.29,30.08,14,5,15,0.00
2013-1-21,-3,-9,-14,-15,-20,-24,70,56,41,30.23,30.14,15,5,15,0.00
2013-1-22,5,-7,-22,-12,-19,-28,76,57,39,30.29,30.15,9,2,9,0.00
2013-1-23,17,3,-6,5,-9,-19,80,58,39,30.45,30.04,14,6,14,0.35
2013-1-24,6,4,0,-5,-9,-13,60,55,51,30.50,30.19,9,4,9,0.00
2013-1-25,19,9,0,10,0,-6,73,64,47,30.20,29.83,14,4,14,0.00
2013-1-26,21,9,-9,10,0,-13,82,66,44,30.25,30.03,11,3,11,0.00
2013-1-27,34,28,21,29,21,10,99,77,55,30.03,29.72,11,3,11,0.00
2013-1-28,36,31,26,33,30,25,99,97,88,29.82,29.55,10,2,10,0.06
2013-1-29,38,32,26,34,28,19,99,84,72,29.67,29.45,16,6,16,0.11
2013-1-30,26,16,10,19,9,1,84,71,61,29.66,29.56,17,8,17,0.01
2013-1-31,11,5,-10,2,-5,-20,67,63,49,30.14,29.64,17,11,17,0.04
2013-2-1,5,-6,-22,-5,-15,-27,81,64,35,30.19,29.97,8,3,9,0.00
2013-2-2,16,6,-7,3,-4,-11,83,65,40,30.08,29.89,7,3,7,0.00
2013-2-3,18,10,2,4,0,-3,84,65,43,29.96,29.87,10,4,10,0.00
2013-2-4,18,10,-2,10,0,-10,89,64,37,29.98,29.63,14,4,14,0.00
2013-2-5,31,19,-1,22,11,-4,93,74,43,29.98,29.53,14,4,14,0.00
2013-2-6,23,15,-3,21,11,-6,90,85,80,30.00,29.86,9,3,10,0.00
2013-2-7,29,25,23,23,22,20,98,86,73,30.17,29.92,17,8,17,0.00
2013-2-8,33,23,5,20,12,2,89,65,42,30.29,30.15,11,3,11,0.00
2013-2-9,32,29,19,30,26,15,99,89,77,30.12,29.85,14,5,17,0.00
2013-2-10,34,30,26,33,29,24,99,97,89,29.86,29.21,17,6,17,0.00
2013-2-11,30,25,15,30,18,10,99,76,63,29.93,29.23,17,7,17,0.00
2013-2-12,40,24,7,22,16,5,93,74,43,29.93,29.68,13,3,13,0.17
2013-2-13,45,28,20,32,24,17,99,86,47,29.69,29.49,7,1,7,0.00
2013-2-14,35,25,9,31,14,-3,99,66,28,30.06,29.52,18,4,18,0.07
2013-2-15,21,11,-1,2,-1,-6,81,58,36,30.19,30.05,17,4,17,0.01
2013-2-16,26,11,-3,4,-1,-34,85,61,34,30.14,30.04,8,2,8,0.00
2013-2-17,32,22,3,18,11,-3,78,63,48,30.06,29.61,15,6,15,0.00
2013-2-18,35,25,15,29,18,8,84,75,64,29.64,29.42,21,6,21,0.00
2013-2-19,15,5,0,8,-8,-10,73,55,39,30.21,29.64,19,9,19,0.26
2013-2-20,20,7,-9,2,-4,-15,81,60,38,30.36,30.21,8,3,8,0.26
2013-2-21,25,15,-5,17,4,-9,88,65,40,30.39,30.06,16,6,16,0.00
2013-2-22,32,25,20,25,21,-30,96,86,69,30.06,29.76,12,6,12,0.01
2013-2-23,36,27,21,25,22,20,97,81,55,29.81,29.72,5,2,5,0.02
2013-2-24,48,25,6,22,15,4,93,70,31,30.01,29.81,9,1,9,0.02
2013-2-25,44,33,11,22,19,8,93,61,35,30.02,29.96,6,2,6,0.00
2013-2-26,39,39,39,20,20,20,46,46,46,29.97,29.97,4,4,4,0.00
2013-3-2,52,24,5,51,10,2,99,59,29,29.92,29.15,7,2,7,4.80
2013-3-3,38,24,7,10,-1,-18,87,42,10,29.73,29.58,13,3,13,0.00
2013-3-4,31,25,21,23,15,0,95,68,36,29.63,29.54,14,4,14,0.00
2013-3-5,31,25,19,27,22,15,98,91,74,29.87,29.57,16,5,16,0.00
2013-3-6,34,19,3,19,12,-1,94,76,46,29.99,29.86,11,3,11,0.00
2013-3-7,40,19,-2,16,8,-6,88,67,34,29.96,29.85,10,2,10,0.06
2013-3-8,44,29,12,28,21,9,95,75,45,29.89,29.66,11,2,11,0.00
2013-3-9,38,35,32,37,34,27,99,96,77,29.67,29.27,10,3,11,0.44
2013-3-10,35,33,30,34,29,25,99,84,77,29.55,29.36,22,10,22,0.02
2013-3-18,22,20,14,11,10,-12,70,64,57,30.04,29.92,13,5,18,0.00
2013-3-19,14,8,6,6,0,-1,72,67,67,30.25,30.04,8,4,15,0.00
2013-3-20,8,8,8,0,0,0,67,67,67,30.24,30.24,4,4,12,0.00
2013-5-4,52,43,26,51,39,23,99,86,77,29.95,29.33,10,5,17,0.00